Home   Weather   Geneva   Past weeks

Flag for Switzerland Past Weather in Geneva, Geneva, Switzerland — Yesterday and Last 2 Weeks

Now
61 °F

Overcast.


Feels Like: 61 °F
Forecast: 53 / 69 °F
Wind: 3 mph from Southwest

Location: Geneve-Cointrin

Current Time: Sep 27, 2016 at 12:38:47 AM

Latest Report: Sep 26, 2016 at 11:00 PM


Visibility: 22 mi

Pressure: 30.20 "Hg

Humidity: 80%

Dew Point: 54 °F

Location of GenevaLocation

Past Weather in Geneva — Graph

°F

Geneva Temperature Yesterday

Maximum temperature yesterday: 69 °F (at 5:00 PM)
Minimum temperature yesterday: 52 °F (at 6:00 AM)
Average temperature yesterday: 61 °F

High & Low Weather Summary for the Past Weeks

 TemperatureHumidityPressure
High84 °F (Sep 12, 4:00 PM)96% (Sep 19, 7:00 AM)30.32 "Hg (Sep 19, 7:00 AM)
Low47 °F (Sep 22, 7:00 AM)32% (Sep 13, 6:00 PM)29.76 "Hg (Sep 14, 8:00 PM)
Average62 °F75%30.06 "Hg
* Reported Sep 11 11:00 PM — Sep 26 11:00 PM, Geneva, Weather by CustomWeather, © 2016

Note: Actual official high and low records may vary slightly from our data, if they occured in-between our weather recording intervals... More about our weather records

Advertising

Geneva Weather History for the Previous 24 Hours

Scroll right to see more
 ConditionsComfort  
Time TempWeatherWind HumidityBarometerVisibility
11:00 PM
Mon, Sep 26
61 °FOvercast.3 mph80%30.20 "Hg22 mi
10:00 PM63 °FMild.6 mph73%30.18 "HgN/A
9:00 PM63 °FMild.5 mph76%30.17 "HgN/A
8:00 PM64 °FOvercast.3 mph68%30.14 "Hg12 mi
7:00 PM67 °FMild.3 mph62%30.12 "HgN/A
6:00 PM69 °FMild.2 mph57%30.10 "HgN/A
5:00 PM69 °FPartly sunny.3 mph53%30.09 "Hg16 mi
4:00 PM69 °FMild.6 mph60%30.09 "HgN/A
3:00 PM69 °FMild.6 mph58%30.10 "HgN/A
2:00 PM68 °FPassing clouds.6 mph60%30.11 "Hg16 mi
1:00 PM67 °FMild.6 mph63%30.13 "HgN/A
12:00 PM66 °FMild.3 mph65%30.15 "HgN/A
11:00 AM63 °FPartly sunny.1 mph72%30.17 "Hg10 mi
10:00 AM59 °FCool.2 mph81%30.18 "HgN/A
9:00 AM55 °FCool.No wind88%30.19 "HgN/A
8:00 AM54 °FPartly sunny.3 mph89%30.18 "Hg11 mi
7:00 AM53 °FCool.1 mph91%30.18 "HgN/A
6:00 AM52 °FCool.1 mph93%30.18 "HgN/A
5:00 AM53 °FCool.1 mph91%30.18 "HgN/A
4:00 AM54 °FCool.1 mph89%30.18 "HgN/A
3:00 AM53 °FCool.1 mph90%30.19 "HgN/A
2:00 AM56 °FCool.2 mph84%30.18 "HgN/A
1:00 AM57 °FCool.1 mph83%30.17 "HgN/A
12:00 AM58 °FCool.2 mph84%30.17 "HgN/A
Weather by CustomWeather, © 2016

See weather overviewHow to use our weather pages